DW7264 Weather Reports


Display with metric or nautical units.
time (UTC)temp
F
wind
direction
speed
MPH
gust
MPH
rain 1hr
in
rain 24hr
in
rain mn
in
humidity
%
barometer
mb
20260504173951 73 105 0.0 0.0 0.00 0.09 0.00 40 1007.3
20260504173502 73 113 0.0 0.0 0.00 0.09 0.00 41 1007.3
20260504173009 73 105 0.0 0.0 0.00 0.09 0.00 41 1007.3
20260504172509 73 125 0.0 0.0 0.00 0.09 0.00 40 1007.4
20260504172010 73 119 0.0 0.0 0.00 0.09 0.00 42 1007.4
20260504171501 72 145 0.0 0.0 0.00 0.09 0.00 42 1007.5
20260504170951 72 133 0.0 0.0 0.00 0.09 0.00 40 1007.5
20260504170449 71 116 0.0 0.0 0.00 0.09 0.00 42 1007.6
20260504160205 65 179 0.0 0.0 0.00 0.09 0.00 50 1008.2
20260504150210 58 78 0.0 0.0 0.00 0.09 0.00 59 1008.7
20260504141136 53 335 0.0 2.0 0.00 0.09 0.00 66 1008.6
20260504130426 51 269 0.0 0.0 0.00 0.09 0.00 68 1008.5
20260504120225 52 264 0.0 0.0 0.00 0.09 0.00 66 1008.3
20260504110704 54 272 0.0 0.0 0.00 0.09 0.00 64 1008.3
20260504110218 54 265 0.0 0.0 0.00 0.09 0.00 63 1008.3
20260504100557 54 246 0.0 0.0 0.00 0.09 0.00 64 1008.1
20260504100111 54 266 0.0 0.0 0.00 0.09 0.00 64 1008.1
20260504081741 59 278 0.0 0.0 0.00 0.09 0.00 56 1008.0
20260504081228 59 288 0.0 0.0 0.00 0.09 0.00 57 1008.0
20260504080736 59 268 0.0 0.0 0.00 0.09 0.00 56 1008.0
20260504080237 59 271 0.0 0.0 0.00 0.09 0.00 56 1007.9
20260504045710 60 284 0.0 0.0 0.00 0.09 0.00 67 1006.9
20260504045216 61 284 0.0 0.0 0.00 0.09 0.00 67 1006.8
20260504044709 61 284 0.0 0.0 0.00 0.09 0.00 66 1006.9
20260504044203 62 284 0.0 0.0 0.00 0.09 0.00 63 1006.8
20260504043708 62 284 0.0 0.0 0.00 0.09 0.00 63 1006.8
20260504042608 64 277 0.0 0.0 0.00 0.09 0.00 60 1006.8
20260504042059 64 277 0.0 0.0 0.00 0.09 0.00 58 1006.7
20260504041004 65 294 0.0 0.0 0.00 0.09 0.00 57 1006.6
20260504040508 65 286 0.0 0.0 0.00 0.09 0.00 55 1006.5
20260504040005 65 284 0.0 0.0 0.00 0.09 0.00 55 1006.4
20260504035451 65 301 0.0 0.0 0.00 0.09 0.00 54 1006.4
20260504033734 65 284 0.0 0.0 0.00 0.09 0.00 58 1006.1
20260504033238 66 277 0.0 0.0 0.00 0.09 0.00 56 1006.1
20260504032723 65 277 0.0 0.0 0.00 0.09 0.00 58 1006.0
20260504032215 65 264 0.0 0.0 0.00 0.09 0.00 61 1006.0
20260504031108 66 271 0.0 0.0 0.00 0.09 0.00 61 1005.9
20260504030619 66 178 0.0 0.0 0.00 0.09 0.00 59 1005.9
20260504030134 67 290 0.0 0.0 0.00 0.09 0.00 59 1005.9
20260504025627 67 290 0.0 0.0 0.00 0.09 0.00 59 1005.8
20260504025128 67 290 0.0 0.0 0.00 0.09 0.00 58 1005.8
20260504024621 67 178 0.0 0.0 0.00 0.09 0.00 59 1005.7
20260504024117 67 259 0.0 0.0 0.00 0.09 0.00 59 1005.7
20260504023620 68 259 0.0 0.0 0.00 0.09 0.00 58 1005.7
20260504023128 68 259 0.0 0.0 0.00 0.09 0.00 58 1005.7
20260504022641 68 259 0.0 0.0 0.00 0.09 0.00 57 1005.6
20260504021537 70 271 0.0 0.0 0.00 0.09 0.00 54 1005.6
20260504021037 70 271 0.0 0.0 0.00 0.09 0.00 54 1005.6
20260504020527 70 271 0.0 0.0 0.00 0.09 0.00 55 1005.6
20260504020033 72 272 0.0 0.0 0.00 0.09 0.00 52 1005.6
20260504015535 73 294 0.0 0.0 0.00 0.09 0.00 48 1005.6
20260504015041 74 294 0.0 0.0 0.00 0.09 0.00 47 1005.6
20260504014532 75 294 0.0 0.0 0.00 0.09 0.00 46 1005.7
20260504014030 76 280 0.0 0.0 0.00 0.09 0.00 44 1005.7
20260504012304 78 271 0.0 0.0 0.00 0.09 0.00 39 1005.7
20260504011817 78 271 0.0 0.0 0.00 0.09 0.00 41 1005.7
20260504011323 78 265 0.0 0.0 0.00 0.09 0.00 41 1005.7
20260504010822 78 277 0.0 0.0 0.00 0.09 0.00 43 1005.8
20260504010336 79 225 0.0 0.0 0.00 0.09 0.00 37 1005.8
20260504005848 80 276 0.0 0.0 0.00 0.09 0.00 35 1005.9
20260504005343 81 275 0.0 0.0 0.00 0.09 0.00 36 1005.9
20260504004851 82 276 0.0 0.0 0.00 0.09 0.00 33 1005.9
20260504004346 84 182 0.0 0.0 0.00 0.09 0.00 28 1005.9
20260504003845 85 128 0.0 0.0 0.00 0.09 0.00 26 1006.1
20260504003330 85 126 0.0 0.0 0.00 0.09 0.00 22 1006.0
20260504002838 86 105 0.0 0.0 0.00 0.09 0.00 24 1006.1
20260504002347 86 132 0.0 0.0 0.00 0.09 0.00 24 1006.2
20260504001856 85 117 0.0 0.0 0.00 0.09 0.00 22 1006.2
20260504001401 85 94 0.0 0.0 0.00 0.09 0.00 22 1006.2
20260504000846 86 98 0.0 0.0 0.00 0.09 0.00 22 1006.3
20260504000347 86 111 0.0 0.0 0.00 0.09 0.00 23 1006.4
20260503235900 86 184 0.0 0.0 0.00 0.09 0.00 22 1006.4
20260503235404 86 133 0.0 0.0 0.00 0.09 0.00 23 1006.4
20260503234851 86 154 0.0 0.0 0.00 0.09 0.00 24 1006.5
20260503234402 86 141 0.0 0.0 0.00 0.09 0.00 23 1006.6
20260503233850 86 118 0.0 0.0 0.00 0.09 0.00 22 1006.7
20260503231517 86 119 0.0 0.0 0.00 0.09 0.00 22 1007.0
20260503231016 86 140 0.0 0.0 0.00 0.09 0.00 22 1007.2
20260503230518 85 136 0.0 0.0 0.00 0.09 0.00 22 1007.1
20260503230022 85 131 0.0 0.0 0.00 0.09 0.00 22 1007.3
20260503225518 85 134 0.0 0.0 0.00 0.09 0.00 22 1007.4
20260503225010 85 130 0.0 0.0 0.00 0.09 0.00 22 1007.5
20260503224515 86 116 0.0 7.0 0.00 0.09 0.00 21 1007.6
20260503223354 85 167 0.0 0.0 0.00 0.09 0.00 22 1007.9
20260503222907 85 198 0.0 0.0 0.00 0.09 0.00 22 1007.9
20260503222356 85 140 0.0 0.0 0.00 0.09 0.00 23 1008.0
20260503221904 85 148 0.0 0.0 0.00 0.09 0.00 23 1008.1
20260503220755 85 150 0.0 0.0 0.00 0.09 0.00 23 1008.3
20260503220242 85 90 0.0 1.0 0.00 0.09 0.00 23 1008.4
20260503215730 85 88 0.0 0.0 0.00 0.09 0.00 23 1008.5
20260503214614 84 156 0.0 0.0 0.00 0.09 0.00 25 1008.7
20260503214104 84 167 0.0 0.0 0.00 0.09 0.00 26 1008.7
20260503213556 84 157 0.0 0.0 0.00 0.09 0.00 25 1008.9
20260503213109 84 127 0.0 0.0 0.00 0.09 0.00 25 1008.9
20260503212011 83 132 0.0 0.0 0.00 0.09 0.00 24 1009.0
20260503211510 83 135 0.0 0.0 0.00 0.09 0.00 25 1009.1
20260503211004 84 115 0.0 0.0 0.00 0.09 0.00 25 1009.2
20260503210510 84 192 0.0 0.0 0.00 0.09 0.00 26 1009.3
20260503210016 83 153 0.0 0.0 0.00 0.09 0.00 26 1009.4
20260503204926 82 185 0.0 0.0 0.00 0.09 0.00 26 1009.6
20260503204437 82 125 0.0 0.0 0.00 0.09 0.00 26 1009.6
20260503203313 82 142 0.0 0.0 0.00 0.09 0.00 30 1009.8
20260503202807 81 162 0.0 0.0 0.00 0.09 0.00 30 1009.9
20260503201651 81 159 0.0 0.0 0.00 0.09 0.00 30 1010.0
20260503200530 80 119 0.0 0.0 0.00 0.09 0.00 32 1010.2
20260503200017 80 96 0.0 0.0 0.00 0.09 0.00 31 1010.4
20260503195526 80 115 0.0 0.0 0.00 0.09 0.00 32 1010.5
20260503195034 79 125 0.0 0.0 0.00 0.09 0.00 35 1010.6
20260503194525 79 166 0.0 0.0 0.00 0.09 0.00 34 1010.7
20260503194013 79 123 0.0 0.0 0.00 0.09 0.00 35 1010.8
20260503193509 79 154 0.0 0.0 0.00 0.09 0.00 35 1010.9
20260503192958 78 157 0.0 0.0 0.00 0.09 0.00 36 1011.0
20260503192509 78 202 0.0 0.0 0.00 0.09 0.00 39 1011.0
20260503192010 78 141 0.0 0.0 0.00 0.09 0.00 37 1011.1
20260503190904 77 101 0.0 0.0 0.00 0.09 0.00 37 1011.3
20260503185746 76 102 0.0 0.0 0.00 0.09 0.00 38 1011.6
20260503185251 76 101 0.0 0.0 0.00 0.09 0.00 41 1011.6
20260503184801 75 180 0.0 0.0 0.00 0.09 0.00 38 1011.6
20260503184315 75 152 0.0 0.0 0.00 0.09 0.00 39 1011.8
20260503183818 75 129 0.0 0.0 0.00 0.09 0.00 37 1011.8
20260503183331 75 72 0.0 0.0 0.00 0.09 0.00 40 1011.9
20260503182828 74 138 0.0 0.0 0.00 0.09 0.00 41 1012.0
20260503182320 74 132 0.0 0.0 0.00 0.09 0.00 41 1012.0
20260503181826 74 155 0.0 0.0 0.00 0.09 0.00 40 1012.2
20260503180041 73 128 0.0 0.0 0.00 0.09 0.00 42 1012.3
20260503175553 72 186 0.0 0.0 0.00 0.09 0.00 42 1012.4